Temperature
22 22 22 21 22 22 24 24 25 25 26 25 25 25 24 23 22 20 19 19 19 18 18 18 18 18 18 18 18 18 18 18 18 18 18 18 17 17 17 17 17 17 17 17 17 17 17 17 17
22 22 22 22 22 23 24 24 25 25 25 25 25 25 24 23 21 20 19 19 19 18 18 18 18 18 18 18 18 18 18 18 18 18 18 18 17 17 17 17 17 17 17 17 17 17 17 17 17
22 22 23 23 23 23 24 25 25 25 25 25 25 24 23 22 21 20 19 19 19 18 18 18 18 18 18 18 18 18 18 18 18 18 17 17 17 17 17 17 17 17 17 17 17 17 17 17 17
22 23 24 24 24 25 25 25 26 26 26 25 25 24 22 21 21 20 19 19 19 18 18 18 18 18 18 18 18 18 18 18 18 17 17 17 17 17 17 17 17 17 17 17 17 17 17 17 17
23 23 24 24 24 25 26 26 26 26 26 25 24 23 21 20 20 19 19 19 19 18 18 18 18 18 18 18 18 18 18 18 18 17 17 17 17 17 17 17 17 17 17 17 17 17 17 17 17
23 24 24 24 24 26 26 26 26 26 25 25 24 23 21 20 20 20 19 19 19 18 18 18 18 18 18 18 18 18 18 18 18 18 17 17 17 17 17 17 17 17 17 17 17 17 17 17 17
24 24 24 24 24 25 26 26 26 25 25 25 24 23 21 20 20 19 19 19 19 18 18 18 18 18 18 18 18 18 18 18 18 17 17 17 17 17 17 17 17 17 17 17 17 17 17 17 17
24 24 24 25 24 24 25 26 25 25 25 24 24 23 21 20 20 19 19 19 19 18 18 18 18 18 18 18 18 18 18 17 17 17 17 17 17 17 17 17 17 17 17 17 17 17 17 17 17
24 24 24 24 24 24 25 25 25 25 24 24 23 23 22 21 20 20 19 19 19 19 19 18 18 18 18 18 18 18 18 17 17 17 17 17 17 17 17 17 17 17 17 17 16 16 16 16 16
25 23 24 25 25 25 25 25 25 25 24 23 23 22 21 21 20 20 20 19 19 19 19 19 18 18 18 18 18 17 17 17 17 17 17 17 17 17 17 17 17 16 16 16 16 16 16 16 16
26 25 25 26 26 25 25 25 25 25 24 23 22 22 21 21 20 20 20 20 19 19 19 19 19 18 18 18 18 17 17 17 17 17 17 17 17 17 17 17 16 16 16 16 16 16 16 16 16
26 26 26 26 25 25 25 25 24 24 23 23 22 22 21 21 21 20 20 20 19 19 19 19 19 18 18 18 18 18 18 18 17 17 17 17 17 17 17 16 16 16 16 16 16 16 16 16 16
26 26 26 25 25 25 25 25 24 24 23 23 22 22 22 21 21 21 20 20 19 19 19 19 19 18 18 18 18 18 18 18 17 17 17 17 17 17 17 16 16 16 16 16 16 16 16 16 16
26 26 26 25 25 25 25 25 24 23 23 23 22 22 21 21 21 21 20 20 19 19 19 19 18 18 18 18 18 18 17 17 17 17 17 17 17 17 17 16 16 16 16 16 16 16 16 16 16
26 25 25 26 26 25 25 24 24 23 23 23 22 22 21 21 21 20 20 20 19 19 19 19 18 18 18 18 18 17 17 17 17 17 17 17 17 17 16 16 16 16 16 16 16 16 16 15 15
26 25 24 25 26 26 24 23 24 23 23 23 22 22 21 21 21 20 20 20 19 19 19 18 18 18 18 18 18 17 17 17 17 17 17 17 17 16 16 16 16 16 16 16 15 15 15 15 15
25 24 24 25 26 26 25 23 24 24 23 23 22 22 22 21 21 20 20 20 19 19 19 18 18 18 18 18 17 17 17 17 17 17 16 16 16 16 16 16 16 15 15 15 15 15 15 15 15
24 25 25 25 26 25 24 24 24 24 24 23 23 22 22 21 21 20 20 20 19 19 19 18 18 18 18 17 17 17 17 16 16 16 16 16 16 16 16 15 15 15 15 15 15 15 15 15 15
26 25 25 25 26 25 24 24 24 24 24 24 23 23 22 21 21 20 20 19 19 19 18 18 18 18 17 17 17 17 16 16 16 16 16 16 16 15 15 15 15 15 15 15 15 15 15 14 14
26 25 25 25 26 25 25 25 25 25 24 24 24 23 22 22 21 20 20 19 19 19 18 18 18 17 17 17 17 16 16 16 16 16 16 16 16 15 15 15 15 15 15 14 14 14 14 14 14
26 25 25 25 25 26 25 24 24 25 24 24 24 23 23 22 21 20 20 19 19 18 18 18 17 17 17 17 17 16 16 16 16 16 16 15 15 15 15 15 15 15 14 14 14 14 14 14 14
25 26 26 25 24 24 25 22 23 24 24 24 23 23 22 22 21 20 19 19 18 18 18 18 17 17 17 17 16 16 16 16 16 16 15 15 15 15 15 14 14 14 14 14 14 14 14 14 14
25 26 26 25 24 24 25 24 24 24 23 23 23 23 22 22 21 20 19 19 18 18 18 17 17 17 17 16 16 16 16 16 15 15 15 15 15 15 15 14 14 14 14 14 14 14 14 14 14
26 26 26 25 24 23 25 24 23 23 24 24 24 23 22 22 21 20 19 18 18 17 17 17 17 17 16 16 16 16 15 15 15 15 15 15 15 14 14 14 14 14 14 14 14 14 14 14 14
26 24 23 23 22 23 26 25 23 24 25 24 24 23 22 22 21 20 19 18 18 17 17 17 16 16 16 16 15 15 15 15 15 15 14 14 14 14 14 14 14 14 14 14 14 13 13 13 13
25 25 23 22 23 24 25 24 23 25 25 24 24 23 22 21 20 19 19 18 17 17 16 16 16 16 16 15 15 15 15 15 15 14 14 14 14 14 14 14 14 14 14 13 13 13 13 13 13
25 25 25 24 24 23 24 24 23 24 24 24 23 22 22 21 20 19 18 18 17 16 16 16 16 16 15 15 15 15 15 15 14 14 14 14 14 14 14 14 14 14 13 13 13 13 13 13 13
25 25 24 23 22 22 23 23 22 22 23 23 23 22 21 21 20 19 18 17 17 16 16 16 15 15 15 15 15 15 15 14 14 14 14 14 14 14 14 14 14 14 13 13 13 13 13 13 13
25 25 24 23 23 22 22 22 24 23 23 23 23 22 21 20 20 19 18 17 17 16 16 16 15 15 15 15 14 14 14 14 14 14 14 14 14 14 14 14 14 13 13 13 13 13 12 12 12
24 24 24 22 22 23 22 22 24 24 24 23 23 22 21 20 19 19 18 17 16 16 16 15 15 15 14 14 14 14 14 14 14 14 14 14 14 14 13 13 13 13 13 13 13 12 12 12 12
Wind_Speed
11 11 7 3 3 1 3 6 7 7 7 8 9 9 11 12 8 7 3 5 10 12 13 12 10 10 10 10 10 9 9 9 9 10 10 10 10 10 11 11 11 11 11 11 11 11 11 11 10
9 7 4 3 2 1 4 7 9 9 6 5 8 10 11 11 10 8 4 6 9 11 12 11 10 10 10 9 9 9 9 9 9 9 10 10 10 10 10 11 11 11 11 11 11 11 11 10 10
10 8 3 2 1 2 5 7 8 7 6 6 7 10 8 7 9 6 6 6 9 10 13 12 10 9 9 9 8 8 8 9 9 9 10 10 9 10 10 11 11 10 10 11 11 10 10 10 9
5 3 3 1 4 5 7 7 6 6 6 6 7 8 8 9 7 9 8 8 10 11 13 12 10 9 9 8 8 8 8 8 9 9 9 9 9 9 9 9 10 9 9 10 10 10 9 9 8
4 3 2 1 3 5 7 6 5 6 6 8 10 9 9 11 11 10 8 8 10 10 11 12 10 9 8 8 8 8 8 8 8 8 8 8 8 9 9 9 9 9 9 8 9 9 9 8 8
3 3 1 1 4 5 5 5 6 8 7 7 8 9 8 9 10 8 8 7 9 9 11 12 10 9 8 8 8 8 8 8 7 7 7 7 7 7 8 8 8 8 8 8 8 8 7 7 7
3 3 1 2 3 4 5 5 6 6 6 6 6 7 8 10 8 8 7 7 8 8 8 10 10 9 8 8 8 7 7 6 6 6 6 6 6 6 7 7 7 7 7 7 7 7 6 6 5
3 3 1 2 3 4 5 4 6 6 5 5 5 5 7 9 9 8 7 6 6 6 5 6 8 9 9 8 8 7 6 6 5 5 5 5 6 7 8 8 7 7 7 6 5 5 5 4 3
3 2 1 2 3 3 5 4 4 6 6 7 8 8 10 11 9 8 6 6 5 5 4 5 5 6 8 8 8 8 7 6 5 5 6 5 5 7 7 8 8 7 6 4 3 3 3 2 0
2 1 3 3 3 3 4 3 3 4 5 6 8 10 11 9 8 7 6 6 6 5 4 4 4 4 6 6 7 6 6 6 5 4 5 4 4 6 8 9 7 6 4 3 3 3 2 2 1
1 1 2 3 4 3 3 3 3 3 3 5 7 8 9 8 7 6 6 6 6 5 4 4 3 4 5 4 5 3 3 3 3 3 4 4 5 5 7 5 5 4 3 1 1 1 1 2 3
1 2 2 3 3 2 2 2 3 4 4 5 7 7 8 7 6 6 6 6 6 5 5 4 4 4 4 4 3 3 2 2 2 2 4 4 3 3 3 2 3 3 2 2 2 2 4 5 5
1 1 2 3 3 2 2 3 3 3 5 6 7 7 7 6 6 6 6 6 6 5 5 5 4 4 4 4 2 3 3 3 4 4 4 5 3 3 3 2 3 3 3 3 3 3 4 5 6
1 1 2 2 3 3 2 2 3 3 3 5 6 6 5 5 6 5 6 5 5 5 6 5 4 4 4 3 3 3 3 3 3 3 4 5 4 3 2 3 3 3 4 4 4 3 4 4 4
3 3 3 3 3 3 2 1 2 4 5 5 6 6 5 4 5 5 5 5 5 5 5 5 4 3 3 3 3 3 3 4 3 3 4 5 5 4 4 3 3 3 5 6 5 4 4 3 3
6 5 3 5 5 4 3 2 3 5 6 5 5 5 6 5 5 5 5 5 5 5 5 4 4 4 3 3 3 3 3 4 3 4 5 5 5 6 5 2 2 4 5 4 2 3 3 3 3
6 5 4 4 5 3 3 2 3 5 7 6 6 6 6 6 5 5 5 5 4 4 5 5 3 4 3 3 3 3 4 4 4 4 4 5 5 6 5 2 3 5 3 2 3 3 2 2 2
4 4 2 3 4 3 3 4 6 6 6 6 7 7 7 7 6 6 5 5 5 4 5 5 4 5 4 3 3 3 3 2 3 3 4 5 5 5 4 3 3 4 3 3 3 3 2 2 2
5 5 3 2 2 3 4 5 6 7 6 5 5 6 6 7 7 7 6 5 4 4 5 4 4 4 3 2 2 2 2 2 1 2 3 3 4 5 4 3 3 2 2 2 3 2 2 2 2
7 6 4 2 3 3 4 5 6 7 7 6 5 6 6 7 8 7 6 6 4 3 4 4 4 4 4 2 1 2 2 1 1 2 2 2 3 4 3 3 2 2 2 3 3 2 2 1 1
7 6 4 3 3 6 5 4 6 7 7 5 4 4 5 6 8 7 6 6 4 4 3 3 3 4 4 3 2 2 2 1 1 1 1 1 3 3 3 3 2 2 2 2 1 1 2 1 2
6 4 5 6 5 4 5 4 6 8 7 7 6 5 5 5 6 6 6 5 4 3 2 2 3 2 3 3 3 2 1 1 1 2 1 1 2 2 3 3 2 1 1 2 1 1 1 0 1
5 5 7 8 7 6 7 6 5 9 7 7 7 6 6 6 6 7 7 6 5 3 2 1 2 2 2 2 3 2 1 1 1 2 2 1 0 1 2 3 2 1 1 1 1 1 1 0 0
5 8 10 10 7 8 8 5 2 4 5 6 6 6 6 6 7 7 6 6 5 3 2 1 2 2 1 1 3 2 2 1 2 1 2 1 1 1 1 2 1 1 0 0 1 1 0 0 0
6 6 4 4 5 5 3 2 3 4 5 5 6 5 6 6 6 7 6 5 4 4 2 2 1 1 1 1 1 2 2 2 2 1 1 1 1 1 1 1 1 1 1 1 1 0 0 1 0
7 7 4 4 4 3 3 2 5 7 6 5 6 6 6 5 5 7 6 6 5 4 3 1 1 1 2 1 0 1 1 2 1 1 1 1 1 1 1 2 2 1 1 1 1 0 1 0 0
6 5 6 6 9 6 3 3 5 6 5 6 5 6 6 5 5 6 6 6 5 4 3 2 2 2 2 1 1 1 1 1 1 1 1 1 1 1 1 2 2 1 2 2 1 1 1 0 0
7 6 4 4 4 5 3 2 3 5 5 5 5 5 5 5 5 6 6 5 5 4 3 2 2 2 2 2 1 1 1 2 1 1 1 0 0 1 1 1 1 2 2 2 1 0 1 0 0
7 7 5 4 5 4 3 1 3 4 5 5 4 5 4 4 5 5 6 5 5 4 3 3 2 2 2 1 1 1 1 2 2 1 1 1 0 1 0 1 1 2 2 2 1 1 1 1 1
6 7 6 5 5 5 4 0 3 4 5 4 3 3 4 4 5 5 6 5 4 4 3 2 2 2 2 1 0 1 1 2 1 1 0 1 1 0 1 0 1 1 2 2 2 2 2 2 2
Wind_Direction
283 266 251 254 264 238 57 67 67 54 53 45 43 55 62 56 52 86 120 100 100 102 104 97 86 79 76 76 72 69 70 71 70 69 71 73 73 75 76 75 73 71 70 69 70 70 70 69 68
285 286 274 246 275 43 67 70 69 64 65 56 54 59 67 64 72 93 93 89 99 103 104 98 93 83 78 76 73 69 71 73 73 73 75 77 80 78 76 75 73 70 69 68 67 68 69 67 65
269 267 268 263 3 39 71 75 78 76 63 58 62 56 53 64 78 96 109 107 99 96 99 100 98 90 83 77 73 71 75 76 77 78 80 81 85 82 81 79 75 72 69 69 70 68 67 65 60
271 261 240 253 49 55 77 82 92 86 74 62 68 68 65 60 81 105 117 110 99 99 102 105 102 95 88 81 76 78 79 80 81 85 85 85 86 84 83 81 77 76 72 70 70 68 66 62 54
245 254 245 118 71 69 72 73 76 78 67 67 74 80 81 80 93 106 108 103 103 102 106 111 109 103 97 90 83 81 84 86 86 90 90 89 88 88 88 84 80 78 76 73 71 69 67 59 49
266 251 261 107 92 84 71 68 75 80 79 83 90 92 91 102 101 103 102 102 104 109 112 119 123 117 112 104 98 93 92 93 93 95 98 99 97 94 93 91 86 83 78 76 77 77 72 61 50
280 284 261 108 97 84 72 65 70 67 66 64 77 90 104 107 106 106 105 103 102 110 121 133 138 133 127 120 115 111 108 106 105 107 114 119 116 109 103 98 95 90 85 86 86 84 80 70 56
293 288 274 105 96 87 79 66 70 67 64 70 70 94 116 122 124 119 117 112 110 111 118 130 141 141 140 136 130 128 127 125 131 139 144 143 134 125 115 109 106 100 97 98 99 100 97 90 62
265 261 359 69 84 97 105 91 77 83 77 71 76 90 115 126 129 126 121 120 112 105 106 112 125 125 135 139 136 142 140 142 154 171 177 169 152 132 124 116 122 116 114 117 124 140 140 153 197
219 326 36 56 83 97 103 108 110 104 94 95 98 104 113 123 128 129 129 126 118 112 106 99 112 122 121 120 136 151 148 158 175 176 171 167 127 113 118 128 134 134 135 145 182 202 206 231 237
185 77 55 62 74 91 96 81 69 91 85 100 113 119 125 133 140 139 132 122 115 113 101 90 86 94 101 104 117 129 128 146 158 133 118 114 114 116 122 132 137 141 153 167 175 209 101 66 65
78 68 70 84 81 100 110 99 78 74 77 92 119 137 134 144 144 140 129 122 116 113 108 94 82 89 91 93 104 108 105 94 80 80 108 94 87 95 94 97 117 114 95 67 61 62 57 56 53
148 112 100 110 124 121 110 105 106 90 100 114 128 138 139 147 140 136 130 124 124 114 103 91 86 82 87 90 90 89 81 77 69 41 68 87 81 87 86 81 72 72 67 67 47 47 57 57 43
131 156 178 163 153 158 146 137 132 123 133 126 130 129 131 133 131 129 128 126 125 118 109 103 97 89 89 96 96 83 78 75 73 56 60 79 83 82 83 80 62 61 53 52 50 52 63 65 59
211 208 210 179 184 163 143 182 146 156 157 141 136 130 132 135 132 134 138 136 129 122 115 117 119 106 102 94 91 83 73 68 56 45 57 63 73 81 78 73 60 50 54 49 42 41 54 63 62
221 213 197 186 190 182 196 189 142 156 154 142 135 140 144 143 141 134 131 126 124 122 118 116 118 112 102 94 88 82 72 67 60 48 44 50 64 76 73 77 75 64 62 57 48 43 42 52 52
227 222 208 187 179 193 203 193 157 169 165 162 158 161 156 149 147 141 137 128 121 124 127 125 123 117 105 98 95 83 78 71 63 55 44 42 51 72 74 68 64 67 59 50 45 44 42 50 51
273 266 222 205 179 205 211 193 171 179 183 177 169 168 163 156 153 142 134 131 130 130 122 118 113 108 101 95 93 83 76 78 68 61 49 44 50 70 77 81 73 65 62 50 49 44 29 51 45
285 285 274 229 186 219 228 207 180 177 180 179 176 165 162 159 153 141 142 135 130 124 117 118 114 111 110 100 101 108 106 97 90 87 65 52 55 65 68 66 73 71 75 68 63 59 32 25 54
265 273 274 258 187 227 235 223 187 173 177 182 177 164 160 152 142 145 142 127 124 119 116 125 127 126 129 124 122 137 130 126 107 79 74 56 59 72 82 86 86 75 73 69 69 72 50 354 10
257 266 269 277 267 245 229 230 201 169 165 167 169 147 137 152 148 148 139 131 135 128 131 136 136 142 136 124 101 90 90 112 114 104 94 63 69 74 70 75 84 110 103 97 99 107 87 356 326
265 269 272 262 250 248 225 238 195 177 175 172 172 163 148 145 138 140 134 128 126 115 115 123 130 128 124 128 125 134 158 178 173 144 127 101 73 85 84 76 76 83 109 122 176 123 116 117 306
283 281 268 264 263 264 242 244 190 172 177 173 169 159 151 147 133 135 138 133 127 112 102 102 121 116 119 140 144 142 142 156 110 108 121 126 135 79 96 90 72 60 68 190 146 95 107 116 59
275 269 258 250 251 253 241 230 160 182 161 159 156 156 150 147 137 135 133 125 119 117 113 88 94 95 125 148 140 147 161 151 130 138 156 173 153 157 146 117 110 97 111 344 81 80 108 36 300
253 270 263 236 226 237 229 212 132 118 116 140 153 155 147 139 135 136 130 128 126 127 127 123 109 104 95 92 144 161 157 154 161 167 154 146 147 152 169 132 139 154 162 150 116 348 252 235 228
258 260 273 283 284 287 239 180 117 108 105 116 132 137 132 136 136 135 134 133 132 129 130 121 102 98 104 103 68 108 149 144 140 157 142 150 163 176 168 157 156 164 131 112 125 163 279 326 44
267 264 275 282 288 284 235 134 124 112 123 131 129 130 134 137 140 136 135 136 138 141 140 137 119 125 119 109 87 84 88 110 124 130 112 156 190 166 136 144 148 154 125 112 111 131 291 312 28
255 279 287 279 288 281 271 191 155 154 147 145 145 139 141 143 142 138 137 142 141 133 129 120 107 99 110 110 143 157 138 125 144 149 142 78 41 82 123 120 135 137 122 116 135 174 278 261 256
233 244 251 264 268 280 295 9 85 128 134 148 151 145 142 143 140 140 139 140 130 124 128 131 124 113 110 120 153 168 144 134 131 142 149 128 67 43 266 143 133 145 151 154 166 182 221 220 254
255 263 268 267 277 281 280 319 85 93 116 114 118 123 124 124 128 130 131 129 133 137 132 132 126 115 110 105 57 47 86 91 109 112 103 121 153 142 269 180 151 169 166 173 173 194 211 207 229
Height
1498 1498 1499 1500 1501 1503 1503 1498 1494 1494 1495 1497 1497 1497 1501 1505 1510 1520 1519 1518 1518 1517 1517 1516 1517 1516 1516 1516 1517 1517 1517 1518 1518 1518 1519 1519 1519 1519 1519 1519 1520 1520 1520 1520 1521 1521 1522 1522 1522
1498 1499 1501 1501 1503 1509 1506 1498 1497 1497 1498 1498 1499 1500 1503 1508 1512 1516 1518 1519 1519 1518 1518 1518 1518 1518 1518 1518 1518 1518 1518 1519 1519 1519 1520 1520 1520 1520 1521 1521 1521 1521 1522 1522 1522 1522 1522 1523 1523
1499 1500 1501 1499 1502 1506 1505 1498 1498 1498 1499 1499 1501 1503 1507 1512 1515 1517 1518 1519 1519 1519 1519 1519 1519 1519 1519 1519 1519 1519 1520 1520 1520 1520 1521 1521 1521 1521 1522 1522 1522 1523 1523 1523 1523 1523 1523 1524 1524
1501 1501 1501 1501 1504 1498 1497 1497 1497 1499 1500 1501 1502 1506 1512 1515 1516 1518 1519 1520 1520 1520 1520 1520 1520 1520 1520 1520 1520 1521 1521 1521 1521 1522 1522 1522 1522 1523 1523 1523 1524 1524 1524 1524 1524 1524 1525 1525 1525
1502 1501 1501 1504 1503 1497 1495 1497 1498 1500 1501 1503 1505 1510 1514 1517 1518 1519 1520 1521 1521 1521 1521 1521 1521 1521 1522 1522 1522 1522 1522 1522 1523 1523 1523 1523 1524 1524 1524 1524 1525 1525 1525 1525 1525 1526 1526 1526 1526
1502 1499 1505 1508 1503 1498 1497 1498 1500 1501 1503 1505 1507 1511 1516 1518 1519 1520 1521 1522 1522 1522 1522 1522 1523 1523 1523 1523 1523 1523 1523 1524 1524 1524 1524 1524 1525 1525 1525 1525 1526 1526 1526 1526 1526 1526 1527 1527 1527
1503 1500 1503 1503 1504 1502 1500 1501 1502 1503 1505 1506 1508 1511 1517 1519 1520 1521 1522 1523 1523 1524 1523 1523 1524 1524 1524 1524 1524 1525 1525 1525 1525 1525 1525 1525 1526 1526 1526 1526 1527 1527 1527 1527 1527 1528 1528 1528 1528
1501 1501 1501 1502 1504 1505 1502 1502 1504 1505 1507 1508 1509 1512 1517 1519 1520 1522 1523 1524 1524 1525 1525 1525 1525 1525 1525 1525 1525 1526 1526 1526 1526 1526 1526 1527 1527 1527 1528 1528 1528 1528 1528 1529 1529 1529 1529 1529 1529
1501 1503 1506 1503 1504 1504 1502 1504 1505 1507 1508 1509 1511 1513 1516 1519 1521 1522 1523 1524 1525 1526 1526 1526 1526 1526 1526 1526 1526 1527 1527 1527 1527 1527 1528 1528 1528 1529 1529 1529 1530 1530 1530 1530 1530 1530 1530 1530 1530
1500 1505 1503 1499 1500 1501 1503 1504 1505 1507 1509 1511 1513 1515 1517 1519 1521 1522 1524 1525 1526 1527 1527 1527 1527 1527 1528 1528 1528 1528 1528 1528 1528 1529 1529 1530 1530 1530 1530 1531 1531 1531 1531 1531 1531 1532 1531 1531 1531
1498 1501 1500 1500 1500 1502 1503 1505 1506 1507 1510 1512 1513 1516 1517 1519 1521 1523 1524 1525 1526 1527 1528 1528 1528 1529 1529 1529 1529 1529 1530 1530 1530 1531 1531 1531 1531 1531 1531 1531 1532 1532 1532 1532 1532 1532 1532 1532 1532
1499 1499 1500 1501 1502 1504 1504 1505 1507 1509 1512 1512 1514 1515 1517 1519 1521 1523 1524 1526 1527 1527 1528 1529 1529 1529 1529 1529 1530 1530 1531 1531 1531 1532 1532 1532 1532 1533 1532 1533 1533 1533 1533 1533 1533 1533 1533 1533 1533
1499 1500 1501 1503 1504 1505 1505 1506 1508 1510 1512 1513 1515 1516 1517 1519 1521 1523 1524 1526 1527 1527 1528 1529 1529 1530 1530 1530 1531 1531 1531 1532 1532 1532 1533 1533 1533 1533 1533 1533 1534 1534 1534 1534 1534 1534 1534 1533 1533
1499 1500 1501 1502 1503 1504 1505 1506 1508 1511 1512 1513 1515 1516 1517 1519 1521 1523 1524 1525 1526 1527 1528 1529 1529 1530 1530 1531 1531 1531 1532 1532 1532 1533 1533 1533 1533 1533 1534 1534 1534 1534 1534 1534 1534 1534 1534 1534 1533
1499 1501 1501 1501 1502 1503 1505 1508 1508 1510 1511 1512 1515 1516 1518 1519 1521 1522 1523 1525 1526 1527 1528 1529 1530 1530 1531 1531 1531 1532 1532 1533 1533 1533 1534 1534 1534 1534 1534 1534 1534 1534 1534 1535 1534 1534 1534 1534 1534
1498 1501 1506 1501 1500 1502 1507 1514 1508 1508 1510 1512 1514 1516 1517 1519 1520 1522 1523 1525 1526 1527 1528 1529 1530 1530 1531 1531 1531 1532 1533 1533 1533 1534 1534 1534 1534 1534 1534 1534 1534 1534 1534 1534 1534 1534 1534 1534 1534
1499 1505 1506 1501 1498 1499 1504 1509 1507 1507 1509 1511 1513 1514 1516 1518 1520 1521 1523 1524 1525 1526 1527 1529 1530 1530 1531 1531 1531 1532 1532 1533 1533 1534 1533 1534 1534 1534 1534 1534 1534 1534 1534 1534 1534 1534 1534 1534 1534
1505 1501 1502 1502 1498 1499 1503 1505 1504 1505 1507 1509 1511 1513 1514 1516 1518 1520 1522 1524 1525 1526 1527 1528 1529 1530 1530 1531 1531 1532 1532 1533 1533 1533 1533 1533 1534 1534 1534 1534 1534 1534 1534 1534 1534 1534 1534 1534 1534
1496 1499 1501 1498 1495 1498 1501 1502 1502 1503 1505 1507 1509 1510 1513 1515 1517 1519 1521 1522 1524 1525 1526 1527 1528 1529 1529 1530 1531 1531 1531 1532 1532 1533 1533 1533 1533 1533 1534 1534 1534 1534 1534 1534 1533 1533 1533 1534 1534
1495 1499 1500 1496 1493 1496 1500 1500 1498 1500 1502 1505 1506 1508 1511 1513 1515 1518 1520 1521 1523 1524 1526 1527 1528 1528 1529 1529 1530 1531 1531 1531 1532 1532 1532 1533 1533 1533 1533 1533 1533 1533 1533 1533 1533 1533 1533 1534 1534
1495 1498 1498 1499 1496 1493 1498 1503 1499 1497 1500 1503 1505 1507 1509 1511 1514 1516 1518 1520 1521 1523 1524 1525 1527 1527 1528 1528 1529 1530 1530 1530 1530 1531 1531 1532 1532 1532 1532 1533 1533 1533 1533 1533 1533 1533 1533 1534 1534
1498 1492 1493 1495 1501 1502 1499 1513 1501 1496 1499 1501 1504 1506 1508 1511 1512 1515 1517 1518 1520 1522 1523 1524 1525 1526 1527 1527 1527 1528 1528 1529 1529 1530 1530 1531 1531 1531 1532 1532 1532 1532 1532 1532 1533 1533 1533 1533 1534
1493 1490 1491 1493 1497 1501 1497 1505 1500 1494 1498 1499 1501 1504 1507 1509 1511 1514 1515 1517 1519 1520 1522 1523 1524 1525 1525 1526 1526 1526 1527 1527 1528 1528 1529 1529 1530 1530 1530 1531 1531 1531 1531 1532 1532 1532 1532 1533 1533
1489 1490 1490 1490 1496 1509 1495 1500 1505 1495 1494 1496 1499 1503 1505 1508 1510 1513 1515 1516 1518 1519 1521 1522 1522 1523 1523 1524 1524 1524 1525 1525 1526 1526 1527 1528 1528 1529 1529 1529 1529 1530 1530 1530 1531 1531 1531 1532 1532
1489 1498 1508 1511 1512 1505 1487 1494 1500 1490 1489 1493 1498 1501 1504 1507 1509 1512 1513 1515 1517 1518 1519 1520 1521 1521 1522 1522 1522 1523 1523 1523 1524 1525 1525 1526 1526 1527 1527 1528 1528 1528 1529 1529 1529 1530 1530 1531 1531
1490 1494 1511 1520 1513 1501 1489 1495 1495 1487 1489 1493 1496 1500 1503 1506 1508 1510 1512 1514 1515 1517 1518 1518 1519 1519 1520 1520 1520 1521 1521 1522 1522 1523 1524 1524 1525 1525 1526 1526 1526 1527 1527 1528 1528 1528 1529 1529 1530
1491 1492 1489 1500 1500 1504 1496 1493 1491 1488 1490 1493 1496 1499 1502 1505 1507 1509 1511 1513 1514 1516 1516 1517 1517 1518 1518 1518 1519 1519 1520 1520 1521 1521 1522 1523 1523 1524 1524 1525 1525 1525 1526 1526 1526 1527 1527 1528 1528
1487 1488 1493 1501 1511 1514 1502 1498 1500 1494 1493 1493 1496 1499 1502 1504 1506 1508 1510 1512 1513 1514 1515 1516 1516 1516 1516 1517 1517 1518 1518 1519 1519 1520 1520 1521 1522 1522 1523 1523 1523 1524 1524 1524 1525 1525 1526 1526 1526
1488 1490 1491 1496 1498 1511 1515 1508 1487 1489 1490 1492 1494 1497 1500 1502 1505 1507 1508 1510 1512 1513 1514 1515 1515 1515 1515 1516 1516 1516 1517 1517 1518 1518 1519 1519 1520 1521 1521 1521 1522 1522 1522 1522 1523 1523 1524 1524 1525
1485 1487 1491 1503 1503 1499 1507 1507 1485 1486 1488 1491 1494 1497 1499 1501 1503 1505 1507 1509 1511 1512 1513 1513 1514 1514 1514 1514 1515 1515 1515 1516 1516 1517 1518 1518 1518 1519 1519 1519 1520 1520 1520 1521 1521 1521 1522 1522 1523